Flag for Hungary Weather past 2 weeks in Budapest, Hungary

Now
70 °F

Thunderstorms. Passing clouds.


Feels Like: 70 °F
Forecast: 65 / 84 °F
Wind: 9 mph from Northwest

Location: Ferenc Liszt International Airport

Current Time: Jul 31, 2014 at 2:30:49 AM

Latest Report: Jul 31, 2014 at 1:30 AM


Visibility: N/A

Pressure: 29.77 "Hg

Humidity: 83%

Dew point: 64 °F

Location of BudapestLocation

Historic Weather in Budapest — Graph

°F

Budapest temperature yesterday

Maximum temperature yesterday: 84 °F (at 3:30 PM)
Minimum temperature yesterday: 66 °F (at 1:00 AM)
Average temperature yesterday: 74 °F

Past Weeks' High & Low Weather Summary

 TemperatureHumidityPressure
High91 °F (Jul 21, 2:00 PM)100% (Jul 22, 1:30 PM)30.07 "Hg (Jul 22, 1:30 PM)
Low59 °F (Jul 24, 2:30 AM)31% (Jul 20, 4:30 PM)29.71 "Hg (Jul 21, 4:00 PM)
Average74 °F69%29.91 "Hg
* Reported Jul 16 1:00 AM — Jul 31 1:30 AM, Budapest, Weather by CustomWeather, © 2014

Note: Actual official high and low records may vary slightly from our data, if they occured in-between our weather recording intervals... More about our weather records

Advertising

Budapest weather history for previous 24 hours

 ConditionsComfort  
Time TempWeatherWind HumidityBarometerVisibility
1:30 AM
Jul 31
70 °FThunderstorms. Passing clouds.9 mph83%29.77 "HgN/A
1:00 AM70 °FThundershowers. Partly cloudy.8 mph83%29.77 "HgN/A
12:30 AM72 °FThundershowers. Passing clouds.13 mph78%29.77 "HgN/A
12:00 AM72 °FThundershowers. Passing clouds.10 mph78%29.74 "HgN/A
11:30 PM
Jul 30
73 °FThundershowers. Partly cloudy.12 mph69%29.77 "HgN/A
11:00 PM75 °FPassing clouds.7 mph78%29.74 "HgN/A
10:30 PM77 °FPassing clouds.10 mph69%29.74 "HgN/A
10:00 PM77 °FPassing clouds.12 mph69%29.74 "HgN/A
9:30 PM77 °FPassing clouds.9 mph74%29.74 "HgN/A
9:00 PM77 °FSunny.12 mph74%29.74 "Hg10 mi
8:30 PM79 °FSunny.12 mph70%29.71 "Hg10 mi
8:00 PM79 °FSunny.12 mph70%29.71 "Hg10 mi
7:30 PM81 °FSunny.9 mph66%29.74 "Hg10 mi
7:00 PM81 °FSunny.9 mph66%29.74 "Hg10 mi
6:30 PM82 °FPassing clouds.12 mph58%29.74 "HgN/A
6:00 PM82 °FScattered clouds.17 mph58%29.74 "HgN/A
5:30 PM82 °FScattered clouds.16 mph58%29.74 "HgN/A
5:00 PM82 °FScattered clouds.15 mph58%29.74 "HgN/A
4:30 PM82 °FScattered clouds.17 mph62%29.74 "HgN/A
4:00 PM82 °FScattered clouds.16 mph62%29.77 "HgN/A
3:30 PM84 °FScattered clouds.16 mph58%29.77 "HgN/A
3:00 PM81 °FScattered clouds.18 mph66%29.77 "HgN/A
2:30 PM81 °FScattered clouds.17 mph66%29.77 "HgN/A
2:00 PM81 °FScattered clouds.15 mph66%29.77 "HgN/A
1:30 PM81 °FPassing clouds.14 mph70%29.80 "HgN/A
1:00 PM79 °FPassing clouds.14 mph65%29.80 "HgN/A
12:30 PM79 °FPassing clouds.13 mph70%29.80 "HgN/A
12:00 PM77 °FPassing clouds.15 mph74%29.80 "HgN/A
11:30 AM75 °FScattered clouds.13 mph83%29.80 "HgN/A
11:00 AM73 °FPartly sunny.10 mph83%29.80 "Hg5 mi
10:30 AM72 °FFog.10 mph88%29.83 "Hg3 mi
10:00 AM70 °FFog.10 mph94%29.83 "Hg3 mi
9:30 AM70 °FFog.10 mph94%29.80 "Hg3 mi
9:00 AM70 °FPartly sunny.9 mph94%29.80 "Hg4 mi
8:30 AM70 °FFog.6 mph94%29.80 "Hg3 mi
8:00 AM68 °FFog.9 mph100%29.80 "Hg3 mi
7:30 AM68 °FFog.7 mph100%29.80 "Hg3 mi
7:00 AM66 °FFog.8 mph100%29.80 "Hg3 mi
6:30 AM66 °FFog.8 mph100%29.80 "Hg3 mi
6:00 AM66 °FFog.10 mph100%29.80 "Hg2 mi
5:30 AM66 °FFog.9 mph100%29.80 "Hg2 mi
5:00 AM66 °FFog.8 mph100%29.80 "Hg3 mi
4:30 AM66 °FFog.6 mph100%29.80 "Hg3 mi
4:00 AM66 °FFog.5 mph100%29.80 "Hg3 mi
3:30 AM66 °FClear.5 mph100%29.80 "Hg4 mi
3:00 AM66 °FClear.5 mph100%29.80 "Hg4 mi
2:30 AM66 °FClear.6 mph100%29.80 "Hg5 mi
2:00 AM66 °FClear.5 mph100%29.80 "Hg5 mi
Weather by CustomWeather, © 2014

See weather overviewHow to use our weather pages